Location: Unspecified
(0.0000°N, 0.0000°E)
Time: 18:00:15
(UTC+00:00)

S-56A Canister/Altair - Visible Passes

Search period start: 18 June 2019 00:00
Search period end: 28 June 2019 00:00
Orbit: 633 x 2499 km, 38.9° (Epoch: 17 June)

Date Brightness Start Highest point End Pass type
(mag) Time Alt. Az. Time Alt. Az. Time Alt. Az.
18 Jun 11.0 02:58:23 11° SSE 02:58:23 11° SSE 02:58:46 10° SSE visible
18 Jun 10.6 04:56:20 10° SSW 04:57:44 10° SSW 04:59:11 10° SSW visible
19 Jun 10.7 04:25:29 11° SSW 04:25:29 11° SSW 04:26:46 10° S visible
